DW3068 Weather Reports


time (UTC)temp
C
wind
direction
speed
KPH
gust
KPH
rain 1hr
cm
rain 24hr
cm
rain mn
cm
humidity
%
barometer
mb
20260506114842 22 319 1.6 14.5 0.00 0.00 0.00 40 1017.5
20260506114324 22 290 4.8 8.0 0.00 0.00 0.00 41 1017.5
20260506113818 22 252 1.6 16.1 0.00 0.00 0.00 41 1017.5
20260506113321 22 329 9.7 16.1 0.00 0.00 0.00 41 1017.6
20260506112817 22 267 6.4 14.5 0.00 0.00 0.00 40 1017.8
20260506112332 22 161 3.2 9.7 0.00 0.00 0.00 40 1017.9
20260506111817 22 236 4.8 17.7 0.00 0.00 0.00 41 1018.0
20260506111329 21 46 3.2 12.9 0.00 0.00 0.00 41 1017.7
20260506110815 21 309 4.8 16.1 0.00 0.00 0.00 40 1017.8
20260506110329 22 245 8.0 16.1 0.00 0.00 0.00 41 1017.9
20260506105842 21 214 4.8 12.9 0.00 0.00 0.00 43 1017.9
20260506105334 21 238 3.2 14.5 0.00 0.00 0.00 44 1017.9
20260506104831 21 308 6.4 14.5 0.00 0.00 0.00 43 1018.0
20260506104324 21 285 4.8 14.5 0.00 0.00 0.00 43 1018.1
20260506103817 21 257 8.0 14.5 0.00 0.00 0.00 44 1018.2
20260506103353 21 235 3.2 12.9 0.00 0.00 0.00 44 1018.1
20260506102816 21 198 3.2 14.5 0.00 0.00 0.00 43 1018.1
20260506102330 21 263 4.8 14.5 0.00 0.00 0.00 44 1018.2
20260506101817 21 272 8.0 16.1 0.00 0.00 0.00 43 1018.2
20260506101331 21 216 8.0 16.1 0.00 0.00 0.00 43 1018.3
20260506100816 21 269 6.4 12.9 0.00 0.00 0.00 44 1018.3
20260506100328 20 267 3.2 11.3 0.00 0.00 0.00 45 1018.4
20260506095821 20 234 3.2 12.9 0.00 0.00 0.00 45 1018.4
20260506095352 20 217 8.0 12.9 0.00 0.00 0.00 45 1018.4
20260506094837 20 225 3.2 14.5 0.00 0.00 0.00 46 1018.4
20260506094318 20 263 4.8 14.5 0.00 0.00 0.00 45 1018.4
20260506093830 20 207 4.8 14.5 0.00 0.00 0.00 47 1018.5
20260506093316 20 265 8.0 14.5 0.00 0.00 0.00 47 1018.5
20260506092826 20 253 8.0 14.5 0.00 0.00 0.00 46 1018.5
20260506092341 20 269 4.8 11.3 0.00 0.00 0.00 48 1018.5
20260506091832 19 275 3.2 11.3 0.00 0.00 0.00 48 1018.5
20260506091346 19 309 3.2 11.3 0.00 0.00 0.00 48 1018.5
20260506090815 19 253 3.2 11.3 0.00 0.00 0.00 50 1018.5
20260506090317 18 236 1.6 12.9 0.00 0.00 0.00 50 1018.7
20260506085847 18 279 6.4 12.9 0.00 0.00 0.00 49 1018.7
20260506085319 18 221 3.2 12.9 0.00 0.00 0.00 51 1018.7
20260506084827 18 279 4.8 12.9 0.00 0.00 0.00 50 1018.7
20260506084331 18 262 3.2 14.5 0.00 0.00 0.00 51 1018.7
20260506083846 18 269 4.8 9.7 0.00 0.00 0.00 51 1018.8
20260506083338 18 306 4.8 9.7 0.00 0.00 0.00 51 1018.9
20260506082822 18 264 3.2 9.7 0.00 0.00 0.00 51 1018.9
20260506082337 18 290 3.2 8.0 0.00 0.00 0.00 52 1018.9
20260506081832 17 275 3.2 9.7 0.00 0.00 0.00 53 1019.0
20260506081318 17 254 4.8 9.7 0.00 0.00 0.00 52 1019.0
20260506080833 17 238 4.8 9.7 0.00 0.00 0.00 53 1019.0
20260506080319 17 317 4.8 8.0 0.00 0.00 0.00 53 1019.1
20260506073333 16 195 4.8 9.7 0.00 0.00 0.00 53 1019.0
20260506072818 16 207 3.2 6.4 0.00 0.00 0.00 54 1019.0
20260506072332 16 5 3.2 6.4 0.00 0.00 0.00 52 1019.0
20260506071843 16 279 3.2 6.4 0.00 0.00 0.00 52 1019.0
20260506071326 16 297 3.2 9.7 0.00 0.00 0.00 52 1019.1
20260506070820 17 253 1.6 9.7 0.00 0.00 0.00 52 1019.1
20260506070335 16 317 1.6 6.4 0.00 0.00 0.00 51 1019.2
20260506062343 15 317 0.0 3.2 0.00 0.00 0.00 54 1019.1
20260506061828 15 317 0.0 4.8 0.00 0.00 0.00 54 1019.1
20260506061322 15 317 0.0 4.8 0.00 0.00 0.00 54 1019.1
20260506060828 15 317 1.6 4.8 0.00 0.00 0.00 56 1019.0
20260506060322 15 326 1.6 3.2 0.00 0.00 0.00 55 1019.1
20260506051316 15 76 0.0 0.0 0.00 0.00 0.00 59 1019.0
20260506050821 14 76 0.0 0.0 0.00 0.00 0.00 59 1019.0
20260506050403 14 77 0.0 1.6 0.00 0.00 0.00 60 1019.2
20260506044816 12 77 0.0 3.2 0.00 0.00 0.00 60 1019.0
20260506044320 12 76 0.0 3.2 0.00 0.00 0.00 61 1019.2
20260506043832 12 76 0.0 3.2 0.00 0.00 0.00 61 1019.1
20260506043316 11 76 1.6 3.2 0.00 0.00 0.00 62 1019.0
20260506042824 11 76 0.0 4.8 0.00 0.00 0.00 63 1019.0
20260506042339 10 76 1.6 4.8 0.00 0.00 0.00 63 1019.1
20260506041831 10 75 3.2 4.8 0.00 0.00 0.00 62 1019.1
20260506041316 10 91 1.6 3.2 0.00 0.00 0.00 62 1018.7
20260506040830 10 91 0.0 0.0 0.00 0.00 0.00 61 1018.9
20260506040404 10 91 0.0 1.6 0.00 0.00 0.00 61 1018.8
20260506035848 10 91 0.0 1.6 0.00 0.00 0.00 61 1018.9
20260506035321 10 91 0.0 3.2 0.00 0.00 0.00 60 1018.8
20260506034845 10 91 1.6 3.2 0.00 0.00 0.00 60 1018.8
20260506034319 10 91 0.0 3.2 0.00 0.00 0.00 59 1018.7
20260506033823 10 91 0.0 1.6 0.00 0.00 0.00 58 1018.6
20260506033337 10 91 0.0 4.8 0.00 0.00 0.00 59 1018.6
20260506032830 10 91 1.6 4.8 0.00 0.00 0.00 58 1018.7
20260506032315 11 92 0.0 3.2 0.00 0.00 0.00 58 1018.6
20260506031825 10 92 1.6 4.8 0.00 0.00 0.00 58 1018.7
20260506031340 10 92 3.2 6.4 0.00 0.00 0.00 57 1018.7
20260506030824 10 98 3.2 6.4 0.00 0.00 0.00 58 1018.6
20260506030338 10 98 1.6 3.2 0.00 0.00 0.00 57 1018.5
20260506025831 10 98 0.0 3.2 0.00 0.00 0.00 58 1018.5
20260506025316 10 98 0.0 3.2 0.00 0.00 0.00 57 1018.5
20260506024821 10 98 0.0 1.6 0.00 0.00 0.00 57 1018.4
20260506024336 11 98 0.0 4.8 0.00 0.00 0.00 56 1018.4
20260506023842 11 98 1.6 4.8 0.00 0.00 0.00 56 1018.4
20260506023316 10 98 1.6 4.8 0.00 0.00 0.00 56 1018.4
20260506022832 10 98 0.0 4.8 0.00 0.00 0.00 56 1018.4
20260506022336 11 98 1.6 4.8 0.00 0.00 0.00 55 1018.4
20260506021830 11 100 0.0 3.2 0.00 0.00 0.00 55 1018.3
20260506021315 11 100 1.6 3.2 0.00 0.00 0.00 54 1018.4
20260506020830 11 101 0.0 3.2 0.00 0.00 0.00 55 1018.4
20260506020315 11 101 1.6 3.2 0.00 0.00 0.00 54 1018.4
20260506015830 11 101 1.6 3.2 0.00 0.00 0.00 54 1018.4
20260506015325 11 101 0.0 3.2 0.00 0.00 0.00 54 1018.3
20260506014833 11 101 0.0 4.8 0.00 0.00 0.00 54 1018.4
20260506014402 11 101 3.2 4.8 0.00 0.00 0.00 54 1018.5
20260506013826 11 102 1.6 3.2 0.00 0.00 0.00 51 1018.4
20260506013340 11 103 0.0 6.4 0.00 0.00 0.00 53 1018.4
20260506012845 11 82 0.0 3.2 0.00 0.00 0.00 53 1018.4
20260506012318 11 82 0.0 3.2 0.00 0.00 0.00 54 1018.5
20260506011823 11 82 0.0 3.2 0.00 0.00 0.00 53 1018.3
20260506011315 11 82 0.0 6.4 0.00 0.00 0.00 54 1018.5
20260506010831 12 82 0.0 6.4 0.00 0.00 0.00 53 1018.3
20260506010315 11 12 1.6 4.8 0.00 0.00 0.00 52 1018.2
20260506005829 12 22 1.6 4.8 0.00 0.00 0.00 54 1018.2
20260506005315 12 5 3.2 4.8 0.00 0.00 0.00 53 1018.2
20260506004818 12 5 3.2 4.8 0.00 0.00 0.00 53 1018.3
20260506004333 12 5 0.0 3.2 0.00 0.00 0.00 54 1018.3
20260506003819 12 5 1.6 4.8 0.00 0.00 0.00 53 1018.2
20260506003334 12 15 1.6 4.8 0.00 0.00 0.00 52 1018.2
20260506002819 12 109 0.0 4.8 0.00 0.00 0.00 52 1018.2
20260506002333 12 109 1.6 6.4 0.00 0.00 0.00 52 1018.2
20260506001827 12 109 1.6 6.4 0.00 0.00 0.00 54 1018.2
20260506001357 12 94 1.6 4.8 0.00 0.00 0.00 54 1018.2
20260506000822 12 102 1.6 6.4 0.00 0.00 0.00 55 1018.2
20260506000337 12 103 1.6 6.4 0.00 0.00 0.00 54 1018.2
20260505235823 12 87 0.0 4.8 0.00 0.00 0.00 54 1018.2
20260505235336 12 89 3.2 4.8 0.00 0.00 0.00 55 1018.3
20260505234822 12 102 1.6 4.8 0.00 0.00 0.00 55 1018.2
20260505234336 12 101 1.6 4.8 0.00 0.00 0.00 55 1018.3
20260505233821 12 105 3.2 6.4 0.00 0.00 0.00 55 1018.3
20260505233317 12 115 3.2 6.4 0.00 0.00 0.00 55 1018.3
20260505232823 12 103 0.0 4.8 0.00 0.00 0.00 55 1018.4
20260505232318 12 109 0.0 6.4 0.00 0.00 0.00 55 1018.4
20260505231824 12 111 3.2 6.4 0.00 0.00 0.00 56 1018.4
20260505231319 11 88 3.2 9.7 0.00 0.00 0.00 56 1018.4
20260505230835 12 99 4.8 9.7 0.00 0.00 0.00 56 1018.5
20260505230321 12 95 0.0 4.8 0.00 0.00 0.00 56 1018.4
20260505225836 11 96 0.0 4.8 0.00 0.00 0.00 56 1018.4
20260505225321 11 96 1.6 4.8 0.00 0.00 0.00 56 1018.4
20260505224828 11 90 3.2 4.8 0.00 0.00 0.00 55 1018.5
20260505224341 12 95 1.6 4.8 0.00 0.00 0.00 55 1018.5
20260505223826 12 96 1.6 4.8 0.00 0.00 0.00 55 1018.4
20260505223319 12 96 1.6 4.8 0.00 0.00 0.00 55 1018.5
20260505222850 12 96 0.0 3.2 0.00 0.00 0.00 55 1018.6
20260505222343 12 97 1.6 6.4 0.00 0.00 0.00 55 1018.5
20260505221828 12 96 3.2 6.4 0.00 0.00 0.00 55 1018.5
20260505221321 12 106 0.0 0.0 0.00 0.00 0.00 55 1018.4
20260505220854 12 106 0.0 1.6 0.00 0.00 0.00 55 1018.5
20260505220326 12 106 0.0 3.2 0.00 0.00 0.00 54 1018.5
20260505215835 12 106 0.0 3.2 0.00 0.00 0.00 54 1018.4
20260505215320 12 106 0.0 1.6 0.00 0.00 0.00 54 1018.5
20260505214826 12 106 0.0 0.0 0.00 0.00 0.00 55 1018.4
20260505214340 12 106 0.0 1.6 0.00 0.00 0.00 54 1018.5
20260505213825 13 106 0.0 1.6 0.00 0.00 0.00 52 1018.4
20260505213319 13 106 0.0 1.6 0.00 0.00 0.00 52 1018.5
20260505212824 13 106 0.0 1.6 0.00 0.00 0.00 51 1018.6
20260505212332 13 106 0.0 3.2 0.00 0.00 0.00 52 1018.6
20260505211845 13 106 0.0 3.2 0.00 0.00 0.00 52 1018.6
20260505211319 13 106 1.6 3.2 0.00 0.00 0.00 51 1018.6
20260505210825 13 106 1.6 3.2 0.00 0.00 0.00 51 1018.6
20260505210321 13 106 0.0 6.4 0.00 0.00 0.00 50 1018.6
20260505205828 13 104 3.2 6.4 0.00 0.00 0.00 50 1018.5
20260505205324 13 123 1.6 4.8 0.00 0.00 0.00 50 1018.6
20260505204830 13 106 3.2 4.8 0.00 0.00 0.00 51 1018.5
20260505204316 13 219 0.0 1.6 0.00 0.00 0.00 52 1018.6
20260505203829 13 219 0.0 3.2 0.00 0.00 0.00 51 1018.5
20260505203343 14 219 1.6 3.2 0.00 0.00 0.00 50 1018.5
20260505202838 15 236 0.0 3.2 0.00 0.00 0.00 51 1018.5
20260505202321 15 236 0.0 1.6 0.00 0.00 0.00 49 1018.5
20260505201816 15 236 0.0 1.6 0.00 0.00 0.00 46 1018.5
20260505201329 15 236 0.0 4.8 0.00 0.00 0.00 45 1018.4
20260505200858 15 237 0.0 4.8 0.00 0.00 0.00 45 1018.4
20260505200322 15 238 0.0 3.2 0.00 0.00 0.00 46 1018.4
20260505195855 15 236 0.0 3.2 0.00 0.00 0.00 47 1018.4
20260505195327 15 237 0.0 3.2 0.00 0.00 0.00 46 1018.4
20260505194854 16 237 0.0 6.4 0.00 0.00 0.00 46 1018.4
20260505194326 16 192 0.0 3.2 0.00 0.00 0.00 44 1018.2
20260505193828 16 194 0.0 4.8 0.00 0.00 0.00 44 1018.3
20260505193320 16 145 1.6 4.8 0.00 0.00 0.00 45 1018.2
20260505192816 16 159 1.6 3.2 0.00 0.00 0.00 45 1018.2
20260505192320 16 173 1.6 4.8 0.00 0.00 0.00 45 1018.2
20260505191815 16 182 1.6 4.8 0.00 0.00 0.00 44 1018.2
20260505191330 16 227 0.0 1.6 0.00 0.00 0.00 44 1018.1
20260505190816 16 227 0.0 3.2 0.00 0.00 0.00 43 1018.1
20260505190329 17 228 0.0 3.2 0.00 0.00 0.00 42 1018.0
20260505185815 17 228 0.0 3.2 0.00 0.00 0.00 41 1017.9
20260505185326 17 228 0.0 11.3 0.00 0.00 0.00 41 1017.8
20260505184852 17 232 4.8 11.3 0.00 0.00 0.00 40 1017.7
20260505184324 17 274 1.6 6.4 0.00 0.00 0.00 41 1017.6
20260505183838 17 157 1.6 8.0 0.00 0.00 0.00 41 1017.6
20260505183324 17 225 3.2 8.0 0.00 0.00 0.00 41 1017.5
20260505182817 17 181 4.8 9.7 0.00 0.00 0.00 40 1017.6
20260505182323 17 212 1.6 8.0 0.00 0.00 0.00 41 1017.5
20260505181817 17 229 3.2 8.0 0.00 0.00 0.00 41 1017.5
20260505181332 17 266 1.6 9.7 0.00 0.00 0.00 41 1017.5
20260505180849 17 205 1.6 12.9 0.00 0.00 0.00 41 1017.4
20260505180314 17 228 3.2 9.7 0.00 0.00 0.00 42 1017.2
20260505175827 17 207 3.2 14.5 0.00 0.00 0.00 41 1017.2
20260505175343 18 230 4.8 14.5 0.00 0.00 0.00 42 1017.2
20260505174819 18 223 3.2 12.9 0.00 0.00 0.00 41 1017.2
20260505174314 18 232 6.4 14.5 0.00 0.00 0.00 41 1017.3
20260505173816 18 248 6.4 17.7 0.00 0.00 0.00 41 1017.2
20260505173400 18 205 6.4 17.7 0.00 0.00 0.00 41 1017.3
20260505172825 19 205 1.6 11.3 0.00 0.00 0.00 41 1017.3
20260505172340 19 234 3.2 17.7 0.00 0.00 0.00 40 1017.3
20260505171825 19 259 4.8 11.3 0.00 0.00 0.00 40 1017.1
20260505171338 20 150 3.2 16.1 0.00 0.00 0.00 39 1017.0
20260505170825 20 219 8.0 16.1 0.00 0.00 0.00 39 1016.9
20260505170320 20 207 6.4 16.1 0.00 0.00 0.00 38 1016.8
20260505165824 20 241 6.4 24.1 0.00 0.00 0.00 37 1016.6
20260505165319 21 166 8.0 16.1 0.00 0.00 0.00 35 1016.6
20260505164827 21 236 9.7 16.1 0.00 0.00 0.00 35 1016.6
20260505164333 21 259 4.8 11.3 0.00 0.00 0.00 36 1016.6
20260505163849 21 252 3.2 11.3 0.00 0.00 0.00 35 1016.6
20260505163314 21 271 3.2 11.3 0.00 0.00 0.00 35 1016.5
20260505162849 22 266 3.2 8.0 0.00 0.00 0.00 35 1016.4
20260505162323 22 222 3.2 9.7 0.00 0.00 0.00 34 1016.5
20260505161838 22 244 3.2 12.9 0.00 0.00 0.00 33 1016.4
20260505161345 22 220 3.2 12.9 0.00 0.00 0.00 33 1016.5
20260505160819 22 215 4.8 9.7 0.00 0.00 0.00 32 1016.5
20260505160351 22 249 3.2 8.0 0.00 0.00 0.00 32 1016.4
20260505153344 23 276 4.8 14.5 0.00 0.00 0.00 29 1016.7
20260505152817 23 269 8.0 14.5 0.00 0.00 0.00 28 1016.7
20260505152324 23 225 3.2 8.0 0.00 0.00 0.00 28 1016.8
20260505151838 23 262 3.2 17.7 0.00 0.00 0.00 29 1016.8
20260505151333 23 207 8.0 19.3 0.00 0.00 0.00 29 1016.7
20260505150819 23 116 8.0 19.3 0.00 0.00 0.00 29 1016.6
20260505150315 23 238 8.0 19.3 0.00 0.00 0.00 28 1016.7
20260505140326 24 244 6.4 14.5 0.00 0.00 0.00 30 1017.4
20260505124845 22 11 3.2 16.1 0.00 0.00 0.00 34 1018.2
20260505124318 23 90 4.8 14.5 0.00 0.00 0.00 33 1018.2
20260505123824 23 242 4.8 12.9 0.00 0.00 0.00 33 1018.3
20260505123338 23 185 6.4 11.3 0.00 0.00 0.00 32 1018.5
20260505122830 23 234 3.2 11.3 0.00 0.00 0.00 32 1018.4
20260505122340 23 278 3.2 12.9 0.00 0.00 0.00 33 1018.5
20260505121825 22 150 4.8 12.9 0.00 0.00 0.00 34 1018.6
20260505121321 22 230 4.8 14.5 0.00 0.00 0.00 34 1018.7
20260505120827 23 350 8.0 14.5 0.00 0.00 0.00 32 1018.7
20260505120322 23 207 3.2 12.9 0.00 0.00 0.00 34 1018.7
20260505115825 23 239 4.8 12.9 0.00 0.00 0.00 34 1018.6
20260505115317 22 219 4.8 11.3 0.00 0.00 0.00 34 1018.6